This is the latest recevied weather packets stored in our database for station/object KC9DRE. If no packets are shown the sender has not sent any weather packets the latest 10 day(s).
| Time | Temp. | Humidity | Pressure | Rain* | Wind** | Luminosity | Snow |
|---|---|---|---|---|---|---|---|
| 1787762725 | 29.44° C | 59% | 1016.6 hPa | 0 mm | - | 710 W/m² | - |
| 1787762424 | 29.44° C | 57% | 1016.6 hPa | 0 mm | - | 603 W/m² | - |
| 1787762121 | 28.89° C | 59% | 1016.8 hPa | 0 mm | - | 468 W/m² | - |
| 1787761817 | 28.89° C | 58% | 1016.8 hPa | 0 mm | - | 431 W/m² | - |
| 1787761512 | 30° C | 55% | 1016.8 hPa | 0 mm | - | 535 W/m² | - |
| 1787761208 | 29.44° C | 58% | 1016.7 hPa | 0 mm | - | 749 W/m² | - |
| 1787760906 | 29.44° C | 58% | 1016.6 hPa | 0 mm | - | 544 W/m² | - |
| 1787760604 | 28.89° C | 56% | 1016.5 hPa | 0 mm | - | 691 W/m² | - |
| 1787760304 | 28.33° C | 58% | 1016.6 hPa | 0 mm | - | 741 W/m² | - |
| 1787760001 | 28.33° C | 58% | 1016.5 hPa | 0 mm | - | 731 W/m² | - |
| 1787759696 | 28.33° C | 62% | 1016.7 hPa | 0 mm | - | 384 W/m² | - |
| 1787759392 | 27.78° C | 62% | 1016.7 hPa | 0 mm | - | 723 W/m² | - |
| 1787759087 | 27.22° C | 63% | 1016.8 hPa | 0 mm | - | 680 W/m² | - |
| 1787758785 | 27.22° C | 65% | 1016.8 hPa | 0 mm | - | 700 W/m² | - |
| 1787758481 | 26.67° C | 65% | 1016.9 hPa | 0 mm | - | 695 W/m² | - |
| 1787758180 | 25.56° C | 67% | 1017 hPa | 0 mm | - | 689 W/m² | - |
| 1787757876 | 25° C | 74% | 1017 hPa | 0 mm | - | 711 W/m² | - |
| 1787757572 | 24.44° C | 72% | 1017.2 hPa | 0 mm | - | 352 W/m² | - |
| 1787757271 | 23.89° C | 74% | 1017.1 hPa | 0 mm | - | 254 W/m² | - |
| 1787756970 | 23.89° C | 74% | 1017.3 hPa | 0 mm | - | 204 W/m² | - |
| 1787756666 | 23.89° C | 74% | 1017.1 hPa | 0 mm | - | 192 W/m² | - |
| 1787756365 | 23.89° C | 75% | 1017.3 hPa | 0 mm | - | 235 W/m² | - |
| 1787756060 | 23.33° C | 73% | 1017.4 hPa | 0 mm | - | 272 W/m² | - |
| 1787755755 | 22.78° C | 78% | 1017.3 hPa | 0 mm | - | 306 W/m² | - |
| 1787755450 | 22.22° C | 81% | 1017.5 hPa | 0 mm | - | 267 W/m² | - |
* Rain latest hour (hover to see other rain measurements)
** Current wind speed in m/s (hover to see current wind gust speed)